TimeEDT,TemperatureF,Dew PointF,Humidity,Sea Level PressureIn,VisibilityMPH,Wind Direction,Wind SpeedMPH,Gust SpeedMPH,PrecipitationIn,Events,Conditions,WindDirDegrees,DateUTC
12:53 AM,77.0,70.0,79,30.06,10.0,ENE,4.6,-,N/A,,Clear,70,2013-10-02 04:53:00
1:53 AM,75.9,69.1,79,30.06,10.0,Variable,3.5,-,N/A,,Clear,0,2013-10-02 05:53:00
2:53 AM,75.0,69.1,82,30.05,10.0,ENE,4.6,-,N/A,,Clear,60,2013-10-02 06:53:00
3:53 AM,75.0,69.1,82,30.04,10.0,ENE,4.6,-,N/A,,Clear,60,2013-10-02 07:53:00
4:53 AM,73.9,69.1,85,30.04,10.0,ENE,4.6,-,N/A,,Clear,60,2013-10-02 08:53:00
5:53 AM,73.9,69.1,85,30.03,10.0,ENE,4.6,-,N/A,,Clear,60,2013-10-02 09:53:00
6:53 AM,73.0,68.0,84,30.04,10.0,ENE,3.5,-,N/A,,Partly Cloudy,60,2013-10-02 10:53:00
7:53 AM,73.9,68.0,82,30.05,10.0,NE,4.6,-,N/A,,Partly Cloudy,40,2013-10-02 11:53:00
8:53 AM,75.9,69.1,79,30.06,10.0,ENE,6.9,-,N/A,,Partly Cloudy,70,2013-10-02 12:53:00
9:53 AM,80.1,70.0,71,30.07,10.0,ENE,6.9,-,N/A,,Partly Cloudy,70,2013-10-02 13:53:00
10:53 AM,82.0,70.0,67,30.07,10.0,East,8.1,-,N/A,,Scattered Clouds,80,2013-10-02 14:53:00
11:53 AM,84.9,69.1,59,30.06,10.0,East,6.9,-,N/A,,Scattered Clouds,80,2013-10-02 15:53:00
12:53 PM,86.0,66.9,53,30.04,10.0,ENE,8.1,-,N/A,,Mostly Cloudy,70,2013-10-02 16:53:00
1:53 PM,87.1,68.0,53,30.02,10.0,Variable,6.9,-,N/A,,Mostly Cloudy,0,2013-10-02 17:53:00
2:53 PM,90.0,68.0,48,30.01,10.0,NE,9.2,-,N/A,,Mostly Cloudy,50,2013-10-02 18:53:00
3:53 PM,88.0,68.0,51,29.99,10.0,ESE,5.8,-,N/A,,Mostly Cloudy,110,2013-10-02 19:53:00
4:53 PM,87.1,66.9,51,29.98,10.0,East,5.8,-,N/A,,Overcast,80,2013-10-02 20:53:00
5:53 PM,88.0,66.9,49,29.99,10.0,NE,9.2,-,N/A,,Overcast,40,2013-10-02 21:53:00
6:53 PM,86.0,66.9,53,30.00,10.0,Variable,4.6,-,N/A,,Overcast,0,2013-10-02 22:53:00
7:53 PM,84.0,66.9,56,30.02,10.0,ENE,5.8,-,N/A,,Mostly Cloudy,60,2013-10-02 23:53:00
8:53 PM,82.9,68.0,60,30.04,10.0,ENE,4.6,-,N/A,,Mostly Cloudy,70,2013-10-03 00:53:00
9:53 PM,82.0,68.0,62,30.05,10.0,East,5.8,-,N/A,,Scattered Clouds,100,2013-10-03 01:53:00
10:53 PM,80.1,69.1,69,30.06,10.0,East,4.6,-,N/A,,Overcast,80,2013-10-03 02:53:00
11:53 PM,79.0,70.0,74,30.06,10.0,Variable,3.5,-,N/A,,Overcast,0,2013-10-03 03:53:00